When you browse on this site, cookies collect data to enhance your experience and personalize the content and advertising you see.
Visit our Privacy Policy to learn more. By continuing to use the site, you agree to this use of cookies and data.
  • In France
  • List of Countries
  • For 7 days
  • Water Temperature
  • Satellite Maps
  • Weather Map
  • Weather Widgets
  • user-avatar
    Login

    Hourly Weather Elbasan

    Today, 19 January, Saturday

    Time Temperature Precipitation Wind Pressure Humidity
    00:00 +6°C° 0.1 mm 2 mps 735 mmHg 83%
    01:00 +6°C° 0 mm 2 mps 735 mmHg 85%
    02:00 +6°C° 0 mm 2 mps 735 mmHg 85%
    03:00 +5°C° 0 mm 2 mps 735 mmHg 85%
    04:00 +5°C° 0 mm 2 mps 734 mmHg 84%
    05:00 +5°C° 0 mm 2 mps 734 mmHg 84%
    06:00 +5°C° 0 mm 2 mps 734 mmHg 83%
    07:00 +5°C° 0 mm 2 mps 735 mmHg 83%
    08:00 +6°C° 0 mm 2 mps 735 mmHg 81%
    09:00 +8°C° 0 mm 2 mps 735 mmHg 80%
    10:00 +9°C° 0 mm 2 mps 735 mmHg 78%
    11:00 +10°C° 0.1 mm 2 mps 735 mmHg 78%
    12:00 +10°C° 0.1 mm 2 mps 735 mmHg 78%
    13:00 +10°C° 0.1 mm 2 mps 734 mmHg 78%
    14:00 +10°C° 0.2 mm 2 mps 734 mmHg 80%
    15:00 +9°C° 0.2 mm 2 mps 734 mmHg 82%
    16:00 +9°C° 0.2 mm 2 mps 734 mmHg 84%
    17:00 +8°C° 0.1 mm 2 mps 734 mmHg 84%
    18:00 +8°C° 0.1 mm 2 mps 733 mmHg 84%
    19:00 +7°C° 0.1 mm 2 mps 733 mmHg 84%
    20:00 +7°C° 0.1 mm 2 mps 733 mmHg 83%
    21:00 +7°C° 0.1 mm 2 mps 733 mmHg 83%
    22:00 +7°C° 0.1 mm 2 mps 733 mmHg 83%
    23:00 +6°C° 0 mm 2 mps 733 mmHg 83%

    Tomorrow, 20 January, Sunday

    Time Temperature Precipitation Wind Pressure Humidity
    00:00 +6°C° 0 mm 2 mps 733 mmHg 83%
    01:00 +6°C° 0 mm 2 mps 733 mmHg 82%
    02:00 +5°C° 0 mm 2 mps 733 mmHg 82%
    03:00 +5°C° 0 mm 2 mps 733 mmHg 82%
    04:00 +5°C° 0 mm 2 mps 733 mmHg 82%
    05:00 +5°C° 0.3 mm 2 mps 733 mmHg 82%
    06:00 +6°C° 0.3 mm 2 mps 733 mmHg 83%
    07:00 +6°C° 0.3 mm 2 mps 733 mmHg 83%
    08:00 +7°C° 0 mm 2 mps 733 mmHg 81%
    09:00 +8°C° 0 mm 2 mps 733 mmHg 79%
    10:00 +10°C° 0 mm 1 mps 734 mmHg 77%
    11:00 +11°C° 0.1 mm 1 mps 733 mmHg 76%
    12:00 +11°C° 0.1 mm 1 mps 733 mmHg 75%
    13:00 +12°C° 0.1 mm 2 mps 733 mmHg 74%
    14:00 +11°C° 0.2 mm 1 mps 733 mmHg 77%
    15:00 +10°C° 0.2 mm 1 mps 733 mmHg 80%
    16:00 +9°C° 0.2 mm 0 mps 733 mmHg 84%
    17:00 +9°C° 0 mm 1 mps 733 mmHg 85%
    18:00 +8°C° 0 mm 1 mps 733 mmHg 87%
    19:00 +7°C° 0 mm 1 mps 733 mmHg 88%
    20:00 +7°C° 0 mm 1 mps 733 mmHg 86%
    21:00 +7°C° 0 mm 1 mps 733 mmHg 85%
    22:00 +6°C° 0 mm 2 mps 734 mmHg 83%
    23:00 +5°C° 0 mm 2 mps 734 mmHg 82%

    Day after tomorrow, 21 January, Monday

    Time Temperature Precipitation Wind Pressure Humidity
    00:00 +5°C° 0 mm 2 mps 734 mmHg 81%
    01:00 +5°C° 0 mm 2 mps 734 mmHg 80%
    02:00 +5°C° 0 mm 2 mps 733 mmHg 79%
    03:00 +5°C° 0 mm 2 mps 733 mmHg 78%
    04:00 +5°C° 0 mm 2 mps 733 mmHg 77%
    05:00 +5°C° 0 mm 2 mps 733 mmHg 77%
    06:00 +5°C° 0 mm 2 mps 733 mmHg 76%
    07:00 +5°C° 0 mm 2 mps 733 mmHg 76%
    08:00 +6°C° 0 mm 2 mps 734 mmHg 72%
    09:00 +9°C° 0 mm 1 mps 734 mmHg 69%
    10:00 +10°C° 0 mm 1 mps 734 mmHg 66%
    11:00 +11°C° 0 mm 1 mps 734 mmHg 64%
    12:00 +12°C° 0 mm 1 mps 734 mmHg 63%
    13:00 +12°C° 0 mm 1 mps 733 mmHg 62%
    14:00 +12°C° 0.1 mm 1 mps 733 mmHg 66%
    15:00 +11°C° 0.1 mm 1 mps 733 mmHg 69%
    16:00 +10°C° 0.1 mm 1 mps 733 mmHg 73%
    17:00 +10°C° 0.1 mm 1 mps 733 mmHg 74%
    18:00 +9°C° 0.1 mm 1 mps 733 mmHg 76%
    19:00 +7°C° 0.1 mm 2 mps 733 mmHg 77%
    20:00 +7°C° 0 mm 2 mps 733 mmHg 78%
    21:00 +7°C° 0 mm 2 mps 733 mmHg 78%
    22:00 +6°C° 0 mm 2 mps 733 mmHg 79%
    23:00 +6°C° 0.2 mm 2 mps 733 mmHg 79%

    22 January, Tuesday

    Time Temperature Precipitation Wind Pressure Humidity
    00:00 +6°C° 0.2 mm 2 mps 733 mmHg 80%
    01:00 +6°C° 0.2 mm 2 mps 733 mmHg 80%
    02:00 +6°C° 0.4 mm 2 mps 732 mmHg 81%
    03:00 +6°C° 0.4 mm 2 mps 732 mmHg 82%
    04:00 +6°C° 0.4 mm 2 mps 731 mmHg 83%
    05:00 +6°C° 0.3 mm 2 mps 731 mmHg 83%
    06:00 +6°C° 0.3 mm 2 mps 731 mmHg 82%
    07:00 +6°C° 0.3 mm 2 mps 731 mmHg 82%
    08:00 +7°C° 0.2 mm 2 mps 730 mmHg 80%
    09:00 +7°C° 0.2 mm 2 mps 730 mmHg 78%
    10:00 +8°C° 0.2 mm 2 mps 730 mmHg 76%
    11:00 +9°C° 0.3 mm 3 mps 729 mmHg 76%
    12:00 +9°C° 0.3 mm 3 mps 728 mmHg 77%
    13:00 +9°C° 0.3 mm 3 mps 728 mmHg 77%
    14:00 +9°C° 0.1 mm 3 mps 727 mmHg 77%
    15:00 +9°C° 0.1 mm 3 mps 726 mmHg 77%
    16:00 +9°C° 0.1 mm 3 mps 726 mmHg 77%
    17:00 +8°C° 0.2 mm 3 mps 725 mmHg 79%
    18:00 +8°C° 0.2 mm 2 mps 725 mmHg 81%
    19:00 +7°C° 0.2 mm 2 mps 725 mmHg 83%
    20:00 +7°C° 0.8 mm 2 mps 724 mmHg 84%
    21:00 +7°C° 0.8 mm 2 mps 724 mmHg 85%
    22:00 +7°C° 0.8 mm 2 mps 724 mmHg 87%
    23:00 +8°C° 1.4 mm 1 mps 723 mmHg 87%

    23 January, Wednesday

    Time Temperature Precipitation Wind Pressure Humidity
    00:00 +8°C° 1.4 mm 1 mps 723 mmHg 88%
    01:00 +8°C° 1.4 mm 1 mps 723 mmHg 88%
    02:00 +8°C° 1 mm 1 mps 722 mmHg 90%
    03:00 +7°C° 1 mm 1 mps 722 mmHg 91%
    04:00 +6°C° 1 mm 0 mps 722 mmHg 93%
    05:00 +6°C° 0.7 mm 0 mps 722 mmHg 94%
    06:00 +6°C° 0.7 mm 0 mps 722 mmHg 95%
    07:00 +6°C° 0.7 mm 0 mps 722 mmHg 96%
    08:00 +6°C° 0.3 mm 0 mps 722 mmHg 93%
    09:00 +7°C° 0.3 mm 0 mps 722 mmHg 91%
    10:00 +7°C° 0.3 mm 0 mps 722 mmHg 88%
    11:00 +8°C° 0.2 mm 0 mps 722 mmHg 86%
    12:00 +9°C° 0.2 mm 1 mps 722 mmHg 84%
    13:00 +9°C° 0.2 mm 1 mps 721 mmHg 82%
    14:00 +9°C° 0.2 mm 1 mps 722 mmHg 84%
    15:00 +9°C° 0.2 mm 1 mps 722 mmHg 86%
    16:00 +9°C° 0.2 mm 1 mps 722 mmHg 87%
    17:00 +8°C° 0.3 mm 1 mps 722 mmHg 90%
    18:00 +8°C° 0.3 mm 1 mps 722 mmHg 93%
    19:00 +7°C° 0.3 mm 1 mps 723 mmHg 95%
    20:00 +7°C° 0.1 mm 1 mps 723 mmHg 94%
    21:00 +7°C° 0.1 mm 1 mps 723 mmHg 93%
    22:00 +7°C° 0.1 mm 1 mps 723 mmHg 91%
    23:00 +6°C° 0 mm 1 mps 723 mmHg 89%

    24 January, Thursday

    Time Temperature Precipitation Wind Pressure Humidity
    00:00 +5°C° 0 mm 2 mps 723 mmHg 87%
    01:00 +4°C° 0 mm 2 mps 723 mmHg 85%
    02:00 +4°C° 0 mm 2 mps 722 mmHg 83%
    03:00 +4°C° 0 mm 2 mps 722 mmHg 81%
    04:00 +4°C° 0 mm 2 mps 722 mmHg 79%
    05:00 +3°C° 0 mm 3 mps 722 mmHg 79%
    06:00 +3°C° 0 mm 3 mps 721 mmHg 79%
    07:00 +3°C° 0 mm 3 mps 721 mmHg 79%
    08:00 +5°C° 0 mm 3 mps 721 mmHg 76%
    09:00 +6°C° 0 mm 4 mps 720 mmHg 73%
    10:00 +7°C° 0 mm 4 mps 720 mmHg 70%
    11:00 +8°C° 0 mm 4 mps 720 mmHg 67%
    12:00 +8°C° 0 mm 4 mps 719 mmHg 64%
    13:00 +10°C° 0 mm 4 mps 719 mmHg 61%
    14:00 +8°C° 0.3 mm 4 mps 719 mmHg 65%
    15:00 +7°C° 0.3 mm 4 mps 719 mmHg 69%
    16:00 +6°C° 0.3 mm 4 mps 719 mmHg 74%
    17:00 +6°C° 0 mm 4 mps 719 mmHg 75%
    18:00 +5°C° 0 mm 4 mps 718 mmHg 77%
    19:00 +4°C° 0 mm 4 mps 718 mmHg 78%
    20:00 +4°C° 0.3 mm 3 mps 718 mmHg 80%
    21:00 +4°C° 0.3 mm 3 mps 719 mmHg 81%
    22:00 +5°C° 0.3 mm 2 mps 719 mmHg 83%
    23:00 +4°C° 0.1 mm 3 mps 719 mmHg 82%
    Show more